timestamp,surface_pressure_avg,surface_temp_avg,battery_voltage,lat,long
2021-12-08 00:09:00+00:00,251.6564,7.1,12.57,47.84626,-54.09684
2021-12-08 00:19:00+00:00,261.0697,7.1,12.57,47.84626,-54.09684
2021-12-08 00:29:00+00:00,272.8564,7.1,12.57,47.84626,-54.09684
2021-12-08 00:39:00+00:00,279.5947,7.19,12.57,47.84626,-54.09684
2021-12-08 00:49:00+00:00,280.3931,7.2,12.57,47.84626,-54.09684
2021-12-08 00:59:00+00:00,289.013,7.2,12.57,47.84626,-54.09684
2021-12-08 01:09:00+00:00,299.0864,7.2,12.57,47.84626,-54.09684
2021-12-08 01:19:00+00:00,303.9564,7.2,12.57,47.84626,-54.09684
2021-12-08 01:29:00+00:00,302.3297,7.2,12.57,47.84626,-54.09684
2021-12-08 01:39:00+00:00,303.4664,7.2,12.57,47.84626,-54.09684
2021-12-08 01:49:00+00:00,305.298,7.2,12.57,47.84626,-54.09684
2021-12-08 01:59:00+00:00,302.3596,7.2,12.57,47.84626,-54.09684
2021-12-08 02:09:00+00:00,297.3146,7.2,12.57,47.84626,-54.09684
2021-12-08 02:19:00+00:00,296.8614,7.2,12.49,47.84626,-54.09684
2021-12-08 02:29:00+00:00,305.4747,7.29,12.49,47.84626,-54.09684
2021-12-08 02:39:00+00:00,305.1031,7.3,12.49,47.84626,-54.09684
2021-12-08 02:49:00+00:00,298.913,7.3,12.49,47.84626,-54.09684
2021-12-08 02:59:00+00:00,305.558,7.3,12.49,47.84626,-54.09684
2021-12-08 03:09:00+00:00,316.4963,7.3,12.49,47.84626,-54.09684
2021-12-08 03:19:01+00:00,315.1746,7.38,12.49,47.84626,-54.09684
2021-12-08 03:29:01+00:00,314.5813,7.31,12.49,47.84626,-54.09684
2021-12-08 03:39:01+00:00,322.9296,7.32,12.49,47.84626,-54.09684
2021-12-08 03:49:01+00:00,326.438,7.2,12.49,47.84626,-54.09684
2021-12-08 03:59:01+00:00,318.0446,7.1,12.49,47.84626,-54.09684
2021-12-08 04:09:01+00:00,316.1447,6.92,12.49,47.84626,-54.09684
2021-12-08 04:19:00+00:00,314.0463,6.5,12.49,47.84626,-54.09684
2021-12-08 04:29:00+00:00,311.4664,7.02,12.49,47.84626,-54.09684
2021-12-08 04:39:00+00:00,306.028,7.3,12.49,47.84626,-54.09684
2021-12-08 04:49:00+00:00,300.2546,6.95,12.49,47.84626,-54.09684
2021-12-08 04:59:00+00:00,298.768,6.8,12.49,47.84626,-54.09684
2021-12-08 05:09:00+00:00,283.623,6.89,12.49,47.84626,-54.09684
2021-12-08 05:19:01+00:00,275.9714,6.78,12.49,47.84626,-54.09684
2021-12-08 05:29:01+00:00,272.2164,6.59,12.49,47.84626,-54.09684
2021-12-08 05:39:01+00:00,268.9514,6.5,12.49,47.84626,-54.09684
2021-12-08 05:49:01+00:00,256.2248,6.33,12.49,47.84626,-54.09684
2021-12-08 05:59:01+00:00,244.2498,6.78,12.49,47.84626,-54.09684
2021-12-08 06:09:01+00:00,236.5847,6.7,12.49,47.84626,-54.09684
2021-12-08 06:19:00+00:00,233.0614,6.72,12.49,47.84626,-54.09684
2021-12-08 06:29:00+00:00,225.8414,6.8,12.49,47.84626,-54.09684
2021-12-08 06:39:00+00:00,216.2881,6.89,12.49,47.84626,-54.09684
2021-12-08 06:49:00+00:00,214.3514,6.89,12.49,47.84626,-54.09684
2021-12-08 06:59:00+00:00,212.7047,6.9,12.49,47.84626,-54.09684
2021-12-08 07:09:00+00:00,204.2681,6.9,12.49,47.84626,-54.09684
2021-12-08 07:19:00+00:00,195.9398,6.9,12.49,47.84626,-54.09684
2021-12-08 07:29:00+00:00,195.9848,6.9,12.49,47.84626,-54.09684
2021-12-08 07:39:00+00:00,197.2598,6.9,12.49,47.84626,-54.09684
2021-12-08 07:49:00+00:00,187.2898,6.9,12.49,47.84626,-54.09684
2021-12-08 07:59:00+00:00,188.0898,6.92,12.49,47.84626,-54.09684
2021-12-08 08:09:00+00:00,195.4582,6.93,12.49,47.84626,-54.09684
2021-12-08 08:19:00+00:00,186.1115,6.93,12.41,47.84626,-54.09684
2021-12-08 08:29:00+00:00,185.5348,6.92,12.41,47.84626,-54.09684
2021-12-08 08:39:00+00:00,196.4915,6.99,12.41,47.84626,-54.09684
2021-12-08 08:49:00+00:00,204.3698,7.0,12.41,47.84626,-54.09684
2021-12-08 08:59:00+00:00,205.5965,7.0,12.41,47.84626,-54.09684
2021-12-08 09:09:00+00:00,212.1514,7.03,12.41,47.84626,-54.09684
2021-12-08 09:19:00+00:00,218.6898,7.1,12.41,47.84626,-54.09684
2021-12-08 09:29:00+00:00,223.5531,7.1,12.41,47.84626,-54.09684
2021-12-08 09:39:00+00:00,229.8998,7.1,12.41,47.84626,-54.09684
2021-12-08 09:49:00+00:00,236.4815,7.18,12.41,47.84626,-54.09684
2021-12-08 09:59:00+00:00,245.7565,7.36,12.41,47.84626,-54.09684
2021-12-08 10:09:00+00:00,253.6598,7.7,12.41,47.84626,-54.09684
2021-12-08 10:19:00+00:00,257.6164,7.47,12.41,47.84626,-54.09684
2021-12-08 10:29:00+00:00,261.3431,7.34,12.41,47.84626,-54.09684
2021-12-08 10:39:00+00:00,265.4481,7.63,12.41,47.84626,-54.09684
2021-12-08 10:49:00+00:00,268.0965,7.2,12.41,47.84626,-54.09684
2021-12-08 10:59:00+00:00,268.2181,7.29,12.41,47.84626,-54.09684
2021-12-08 11:09:00+00:00,276.3597,7.3,12.41,47.84626,-54.09684
2021-12-08 11:19:00+00:00,284.803,7.1,12.41,47.84626,-54.09684
2021-12-08 11:29:00+00:00,293.9647,7.8,12.41,47.84626,-54.09684
2021-12-08 11:39:00+00:00,301.0464,8.0,12.41,47.84626,-54.09684
2021-12-08 11:49:00+00:00,309.5463,7.7,12.41,47.84626,-54.09684
2021-12-08 11:59:00+00:00,311.7363,7.49,12.41,47.84626,-54.09684
2021-12-08 12:09:00+00:00,315.5862,7.6,12.41,47.84626,-54.09684
2021-12-08 12:19:00+00:00,320.4464,7.31,12.57,47.84626,-54.09684
2021-12-08 12:29:00+00:00,328.2764,7.65,12.57,47.84626,-54.09684
2021-12-08 12:39:00+00:00,335.2463,7.92,12.57,47.84626,-54.09684
2021-12-08 12:49:00+00:00,345.5597,8.0,12.57,47.84626,-54.09684
2021-12-08 12:59:00+00:00,351.1512,8.0,12.57,47.84626,-54.09684
2021-12-08 13:09:00+00:00,358.8913,8.08,12.57,47.84626,-54.09684
2021-12-08 13:19:01+00:00,364.8529,8.1,13.13,47.84626,-54.09684
2021-12-08 13:29:01+00:00,371.0095,8.1,13.13,47.84626,-54.09684
2021-12-08 13:39:01+00:00,384.2795,8.1,13.13,47.84626,-54.09684
2021-12-08 13:49:01+00:00,391.1979,8.1,13.13,47.84626,-54.09684
2021-12-08 13:59:01+00:00,387.5378,8.03,13.13,47.84626,-54.09684
2021-12-08 14:09:01+00:00,393.7762,8.09,13.13,47.84626,-54.09684
2021-12-08 14:19:01+00:00,406.4178,8.1,14.0,47.84626,-54.09684
2021-12-08 14:29:01+00:00,405.7112,8.1,14.0,47.84626,-54.09684
2021-12-08 14:39:01+00:00,403.6196,8.11,14.0,47.84626,-54.09684
2021-12-08 14:49:01+00:00,413.2595,8.14,14.0,47.84626,-54.09684
2021-12-08 14:59:01+00:00,417.5062,8.17,14.0,47.84626,-54.09684
2021-12-08 15:09:01+00:00,405.2345,8.18,14.0,47.84626,-54.09684
2021-12-08 15:19:00+00:00,406.4597,8.2,13.76,47.84626,-54.09684
2021-12-08 15:29:00+00:00,412.4295,8.2,13.76,47.84626,-54.09684
2021-12-08 15:39:00+00:00,397.4596,8.19,13.76,47.84626,-54.09684
2021-12-08 15:49:00+00:00,394.4696,8.19,13.76,47.84626,-54.09684
2021-12-08 15:59:00+00:00,404.1078,8.19,13.76,47.84626,-54.09684
2021-12-08 16:09:00+00:00,396.5246,8.07,13.76,47.84626,-54.09684
2021-12-08 16:19:00+00:00,385.8796,8.09,14.16,47.84626,-54.09684
2021-12-08 16:29:00+00:00,387.288,8.12,14.16,47.84626,-54.09684
2021-12-08 16:39:00+00:00,385.4846,8.06,14.16,47.84626,-54.09684
2021-12-08 16:49:00+00:00,366.9613,7.9,14.16,47.84626,-54.09684
2021-12-08 16:59:00+00:00,359.0897,7.8,14.16,47.84626,-54.09684
2021-12-08 17:09:00+00:00,355.6496,7.5,14.16,47.84626,-54.09684
2021-12-08 17:19:00+00:00,339.5729,7.62,14.16,47.84626,-54.09684
2021-12-08 17:29:00+00:00,325.3312,7.72,14.16,47.84626,-54.09684
2021-12-08 17:39:00+00:00,326.2479,7.8,14.16,47.84626,-54.09684
2021-12-08 17:49:00+00:00,320.8963,7.58,14.16,47.84626,-54.09684
2021-12-08 17:59:00+00:00,299.9264,7.34,14.16,47.84626,-54.09684
2021-12-08 18:09:00+00:00,289.2847,7.63,14.16,47.84626,-54.09684
2021-12-08 18:19:01+00:00,287.118,7.7,13.76,47.84626,-54.09684
2021-12-08 18:29:01+00:00,276.4981,7.4,13.76,47.84626,-54.09684
2021-12-08 18:39:01+00:00,266.6731,7.54,13.76,47.84626,-54.09684
2021-12-08 18:49:01+00:00,260.0614,7.7,13.76,47.84626,-54.09684
2021-12-08 18:59:01+00:00,251.2314,7.44,13.76,47.84626,-54.09684
2021-12-08 19:09:01+00:00,240.2064,7.02,13.76,47.84626,-54.09684
2021-12-08 19:19:00+00:00,234.6915,6.97,13.6,47.84626,-54.09684
2021-12-08 19:29:00+00:00,231.8631,7.0,13.6,47.84626,-54.09684
2021-12-08 19:39:00+00:00,227.1564,7.12,13.6,47.84626,-54.09684
2021-12-08 19:49:00+00:00,224.1114,6.4,13.6,47.84626,-54.09684
2021-12-08 19:59:00+00:00,226.6298,6.97,13.6,47.84626,-54.09684
2021-12-08 20:09:00+00:00,226.0948,7.4,13.6,47.84626,-54.09684
2021-12-08 20:19:00+00:00,217.6631,7.51,13.13,47.84626,-54.09684
2021-12-08 20:29:00+00:00,218.8848,7.6,13.13,47.84626,-54.09684
2021-12-08 20:39:00+00:00,229.8264,7.6,13.13,47.84626,-54.09684
2021-12-08 20:49:00+00:00,234.1397,7.48,13.13,47.84626,-54.09684
2021-12-08 20:59:00+00:00,228.4864,7.4,13.13,47.84626,-54.09684
2021-12-08 21:09:00+00:00,231.2298,7.4,13.13,47.84626,-54.09684
2021-12-08 21:19:01+00:00,239.0098,7.5,12.81,47.84626,-54.09684
2021-12-08 21:29:01+00:00,239.8964,7.3,12.81,47.84626,-54.09684
2021-12-08 21:39:01+00:00,243.1714,7.32,12.81,47.84626,-54.09684
2021-12-08 21:49:01+00:00,251.3631,7.35,12.81,47.84626,-54.09684
2021-12-08 21:59:01+00:00,255.0748,7.4,12.81,47.84626,-54.09684
2021-12-08 22:09:01+00:00,251.0864,7.4,12.81,47.84626,-54.09684
2021-12-08 22:19:00+00:00,251.6714,7.3,12.73,47.84626,-54.09684
2021-12-08 22:29:00+00:00,254.6614,7.29,12.73,47.84626,-54.09684
2021-12-08 22:39:00+00:00,252.4881,7.2,12.73,47.84626,-54.09684
2021-12-08 22:49:00+00:00,249.2198,7.16,12.73,47.84626,-54.09684
2021-12-08 22:59:00+00:00,254.1331,7.2,12.73,47.84626,-54.09684
2021-12-08 23:09:00+00:00,251.3897,7.2,12.73,47.84626,-54.09684
2021-12-08 23:19:00+00:00,246.9864,7.27,12.73,47.84626,-54.09684
2021-12-08 23:29:00+00:00,247.4331,7.3,12.73,47.84626,-54.09684
2021-12-08 23:39:00+00:00,252.5081,7.2,12.73,47.84626,-54.09684
2021-12-08 23:49:00+00:00,252.588,7.28,12.73,47.84626,-54.09684
2021-12-08 23:59:00+00:00,252.3098,7.49,12.73,47.84626,-54.09684
